Weather History for CWAR - September, 2012

Change the Weather History Date:

Thursday, September 6, 2012

  Actual Average Record
Temperature  
Mean Temperature 58 °F -  
Max Temperature 62 °F - - ()
Min Temperature 55 °F - - ()
Degree Days  
Heating Degree Days 6    
Growing Degree Days 8 (Base 50)    
Moisture  
Dew Point 52 °F    
Average Humidity 78    
Maximum Humidity 89    
Minimum Humidity 60    
Precipitation  
Precipitation 0.16 in - - ()
Sea Level Pressure  
Sea Level Pressure 30.05 in    
Wind  
Wind Speed 8 mph ()    
Max Wind Speed 24 mph    
Max Gust Speed 33 mph    
T = Trace of Precipitation, MM = Missing Value Source: Averaged Metar Reports

Daily Weather History Graph

Daily Weather History Graph

Search for Another Location

Airport or City:

Trip Planner

Search our weather history database for the weather conditions in past years. The results will help you decide how hot, cold, wet, or windy it might be!

Date:

Astronomy

Sep. 06, 2012 Rise Set
Actual Time 6:32 AM NDT 7:35 PM NDT
Civil Twilight 6:00 AM NDT 8:06 PM NDT
Nautical Twilight 5:23 AM NDT 8:43 PM NDT
Astronomical Twilight 4:43 AM NDT 9:23 PM NDT
Moon 10:13 PM NDT (9/6) 12:53 PM NDT (9/6)
Length of Visible Light 14h 05m
Length of Day
13h 03m
Waning Gibbous, 68% of the Moon is Illuminated
Sep 6
Waning Gibbous
Sep 8
Last Quarter
Sep 15
New
Sep 22
First Quarter
Sep 30
Full

Hourly Weather History & Observations

Time (NDT) Temp. Dew Point Humidity Pressure Visibility Wind Dir Wind Speed Gust Speed Precip Events Conditions
12:30 AM 57 °F 51 °F 75% 30.10 in - NE 8.1 mph - -  
12:30 AM 56.8 °F 51.3 °F 82% 30.10 in - NE 8.1 mph - N/A   Unknown
2:30 AM 55.4 °F 51.8 °F 88% 30.11 in - NE 5.8 mph - N/A   Unknown
3:30 AM 56 °F 52 °F 82% 30.10 in - NE 6.9 mph - -  
3:30 AM 55.8 °F 52.0 °F 87% 30.10 in - NE 6.9 mph - N/A   Unknown
4:30 AM 55.8 °F 52.0 °F 87% 30.11 in - NE 5.8 mph - N/A   Unknown
5:30 AM 55.8 °F 52.2 °F 88% 30.10 in - ENE 6.9 mph - N/A   Unknown
6:30 AM 56 °F 52 °F 83% 30.11 in - ENE 6.9 mph - -  
6:30 AM 55.9 °F 52.2 °F 87% 30.11 in - ENE 6.9 mph - N/A   Unknown
7:30 AM 55.6 °F 52.5 °F 89% 30.11 in - ENE 4.6 mph - N/A   Unknown
8:30 AM 56.7 °F 53.2 °F 88% 30.10 in - ENE 5.8 mph - N/A   Unknown
9:30 AM 58 °F 52 °F 75% 30.10 in - East 9.2 mph - -  
9:30 AM 58.1 °F 52.2 °F 81% 30.10 in - East 9.2 mph - N/A   Unknown
10:30 AM 58.5 °F 52.5 °F 81% 30.09 in - East 10.4 mph - N/A   Unknown
11:30 AM 60.3 °F 51.6 °F 73% 30.08 in - East 9.2 mph - N/A   Unknown
12:30 PM 61 °F 52 °F 63% 30.07 in - East 9.2 mph - -  
12:30 PM 60.8 °F 51.6 °F 72% 30.07 in - East 9.2 mph - N/A   Unknown
1:30 PM 61.9 °F 52.0 °F 70% 30.06 in - East 9.2 mph - N/A   Unknown
2:30 PM 62.4 °F 51.8 °F 68% 30.04 in - ESE 11.5 mph - N/A   Unknown
3:30 PM 62 °F 52 °F 60% 30.03 in - ESE 11.5 mph - -  
3:30 PM 61.5 °F 51.6 °F 70% 30.03 in - ESE 11.5 mph 17.3 mph N/A   Unknown
4:30 PM 60.6 °F 51.8 °F 73% 30.02 in - East 10.4 mph - N/A   Unknown
5:30 PM 60.6 °F 51.3 °F 71% 30.01 in - East 9.2 mph - N/A   Unknown
6:30 PM 60 °F 52 °F 66% 30.01 in - East 10.4 mph - -  
6:30 PM 59.5 °F 51.6 °F 75% 30.01 in - East 10.4 mph 17.3 mph N/A   Unknown
7:30 PM 57.9 °F 51.6 °F 80% 30.00 in - East 11.5 mph 19.6 mph N/A   Unknown
8:30 PM 57.2 °F 51.3 °F 81% 29.98 in - East 13.8 mph 21.9 mph N/A   Unknown
9:30 PM 57 °F 52 °F 77% 29.96 in - East 13.8 mph - -  
9:30 PM 56.7 °F 51.8 °F 84% 29.96 in - East 13.8 mph 19.6 mph N/A   Unknown
10:30 PM 57.0 °F 52.2 °F 84% 29.93 in - East 13.8 mph 19.6 mph N/A   Unknown
11:30 PM 56.8 °F 53.2 °F 88% 29.91 in - ESE 24.2 mph 33.4 mph N/A   Unknown